Regional Weather Roundup
Issued by NWS

Home | Current Version | Previous Version | Text Only | Print | Product List | Glossary On
Versions: 1 2 3 4 5 6 7 8 9 10 11 12 13 14 15 16 17 18 19 20 21 22 23 24 25 26 27 28 29 30 31 32 33 34 35 36 37 38 39 40 41 42 43 44 45 46 47 48 49 50
897
ASUS43 KDTX 091801
RWRMI
MICHIGAN HOURLY REGIONAL WEATHER ROUNDUP
NATIONAL WEATHER SERVICE DETROIT/PONTIAC MI
100 PM EST FRI DEC 09 2016

NOTE: "FAIR" INDICATES FEW OR NO CLOUDS BELOW 12,000 FEET WITH NO
SIGNIFICANT WEATHER AND/OR OBSTRUCTION TO VISIBILITY.

MIZ047>049-052>055-059>063-066>070-074>076-081>083-091900-
SOUTHEAST LOWER MICHIGAN

CITY           SKY/WX    TMP DP  RH WIND       PRES   REMARKS
ADRIAN         LGT SNOW  27  24  89 W9        30.41S FOG     WCI  18
6HR MIN TEMP:  24; 6HR MAX TEMP:  28; 6HR PCP: TRACE;

ALMA           CLOUDY    29  14  53 W16       30.36F WCI  18
ANN ARBOR      CLOUDY    30  19  63 W9G17     30.37S WCI  22
BAD AXE        CLOUDY    28  13  53 NW12      30.32F WCI  18
6HR MIN TEMP:  26; 6HR MAX TEMP:  28;

CARO           CLOUDY    28  21  75 W7        30.33F WCI  21
DETROIT CITY   CLOUDY    31  14  49 NW12G17   30.36F WCI  22
6HR MIN TEMP:  26; 6HR MAX TEMP:  32;

DETROIT        PTSUNNY   31  18  58 W15       30.38S WCI  20
6HR MIN TEMP:  27; 6HR MAX TEMP:  33; 6HR PCP: TRACE;

FLINT          CLOUDY    30  14  51 W17G29    30.35F WCI  18
6HR MIN TEMP:  24; 6HR MAX TEMP:  32;

GROSSE ILE     CLOUDY    33  18  55 W13       30.36S WCI  23
6HR MIN TEMP:  26; 6HR MAX TEMP:  34;

HILLSDALE      LGT SNOW  28  23  80 W10       30.37F WCI  19
HOWELL         CLOUDY    30  15  53 W16       30.35F WCI  19

CITY           SKY/WX    TMP DP  RH WIND       PRES   REMARKS
JACKSON        LGT SNOW  27  21  78 W7        30.38F WCI  19
6HR MIN TEMP:  24; 6HR MAX TEMP:  28; 6HR PCP:  0.04;

LAMBERTVILLE   CLOUDY    31  24  75 W8        30.41S WCI  24
6HR MIN TEMP:  25; 6HR MAX TEMP:  32;

LANSING        CLOUDY    29  16  58 W15       30.38F WCI  18
6HR MIN TEMP:  25; 6HR MAX TEMP:  30;

LAPEER         NOT AVBL
MASON          CLOUDY    28  19  68 W10       30.38S WCI  19
MONROE         PTSUNNY   33  21  62 W13G22    30.39R WCI  23
PONTIAC        PTSUNNY   30  14  51 W21G26    30.33S WCI  17
6HR MIN TEMP:  25; 6HR MAX TEMP:  31; 6HR PCP: TRACE;

PORT HOPE        N/A     29  16  58 NW13G23   30.30F WCI  19
6HR MIN TEMP:  27; 6HR MAX TEMP:  30;

PORT HURON     PTSUNNY   28  19  69 W7G16     30.33F WCI  21
TRI CITIES     CLOUDY    30  19  63 W10       30.35F WCI  21
6HR MIN TEMP:  21; 6HR MAX TEMP:  30; 6HR PCP: TRACE;

MIDLAND        CLOUDY    30  18  60 W10       30.34F WCI  21
6HR MIN TEMP:  20; 6HR MAX TEMP:  31;

TROY           PTSUNNY   32   9  37 W17G26    30.36F WCI  21
SAGINAW HB     CLOUDY    30  21  69 NW7       30.34F WCI  23
$$
MIZ043>046-050>051-056>058-064>065-071>073-077>080-091900-
SOUTHWEST LOWER MICHIGAN

CITY           SKY/WX    TMP DP  RH WIND       PRES   REMARKS
BATTLE CREEK   LGT SNOW  27  23  85 NW12      30.40F FOG     WCI  17
6HR MIN TEMP:  25; 6HR MAX TEMP:  28; 6HR PCP:  0.01;

BENTON HARBOR  FLURRIES  28  16  60 W12       30.46F WCI  18
6HR MIN TEMP:  28; 6HR MAX TEMP:  31; 6HR PCP:  0.01;

BIG RAPIDS     CLOUDY    27  14  59 NW14      30.34F WCI  15
6HR MIN TEMP:  24; 6HR MAX TEMP:  28;

COLDWATER      CLOUDY    29  23  80 W13       30.40F WCI  18
6HR MIN TEMP:  23; 6HR MAX TEMP:  29;

FREMONT        CLOUDY    25  19  77 NW8       30.40S WCI  16
HOLLAND        LGT SNOW  27  18  69 W13G20    30.43F WCI  16
6HR MIN TEMP:  27; 6HR MAX TEMP:  30; 6HR PCP: TRACE;

GRAND RAPIDS   LGT SNOW  27  19  72 NW10      30.40F WCI  17
6HR MIN TEMP:  26; 6HR MAX TEMP:  28; 6HR PCP: TRACE;

IONIA          CLOUDY    27  18  69 W12       30.38S WCI  16
6HR MIN TEMP:  25; 6HR MAX TEMP:  28;

KALAMAZOO      LGT SNOW  28  21  75 NW14      30.41F VSB 1   WCI  17
6HR MIN TEMP:  26; 6HR MAX TEMP:  28; 6HR PCP:  0.01;

LUDINGTON      CLOUDY    27  16  63 NW10G16   30.39F WCI  17
6HR MIN TEMP:  25; 6HR MAX TEMP:  27;

MARSHALL       LGT SNOW  28  23  82 W7        30.39F WCI  20
6HR MIN TEMP:  25; 6HR MAX TEMP:  28;

MOUNT PLEASANT CLOUDY    29  16  58 W14G20    30.34F WCI  19
6HR MIN TEMP:  22; 6HR MAX TEMP:  31;

MUSKEGON       LGT SNOW  28  17  63 NW10      30.42F WCI  19
6HR MIN TEMP:  27; 6HR MAX TEMP:  30; 6HR PCP: TRACE;

SOUTH HAVEN    CLOUDY    28  16  60 NW12G21   30.44F WCI  18
$$
MIZ016>042-091900-
NORTHERN LOWER MICHIGAN

CITY           SKY/WX    TMP DP  RH WIND       PRES   REMARKS
ALPENA         CLOUDY    25  15  66 NW12      30.32S WCI  14
6HR MIN TEMP:  19; 6HR MAX TEMP:  26; 6HR PCP:  0.01;

BEAVER ISLAND  PTSUNNY   27  16  65 N6        30.34S WCI  20
6HR MIN TEMP:  24; 6HR MAX TEMP:  27;

BELLAIRE       LGT SNOW  26  23  89 N6        30.33F VSB 3/4 WCI  19
6HR MIN TEMP:  21; 6HR MAX TEMP:  27;

CADILLAC       SNOW      25  20  83 W9        30.29S VSB 1/2 WCI  15
CHARLEVOIX     LGT SNOW  27  22  84 E8        30.35S WCI  18
6HR MIN TEMP:  27; 6HR MAX TEMP:  28;

FRANKFORT      LGT SNOW  27  23  82 NW16      30.36F WCI  15
GAYLORD        FLURRIES  23  16  74 CALM      30.27F
6HR MIN TEMP:  19; 6HR MAX TEMP:  25; 6HR PCP: TRACE;

GRAYLING       FLURRIES  26  19  77 W5        30.29F WCI  20
6HR MIN TEMP:  19; 6HR MAX TEMP:  26;

HARBOR SPRINGS CLOUDY    25  16  68 N6        30.32S WCI  18
HOUGHTON LAKE  CLOUDY    24  18  77 W7        30.30F WCI  16
6HR MIN TEMP:  22; 6HR MAX TEMP:  25; 6HR PCP:  0.04;

MANISTEE       FLURRIES  27  18  69 W20       30.37F WCI  13
OSCODA         CLOUDY    29  13  51 NW8       30.31S WCI  21
6HR MIN TEMP:  15; 6HR MAX TEMP:  29;

PELLSTON       PTSUNNY   25  13  60 N6        30.32F WCI  18
6HR MIN TEMP:  21; 6HR MAX TEMP:  26; 6HR PCP: TRACE;

ROGERS CITY    MOSUNNY   25  14  62 N8        30.32F WCI  16
TRAVERSE CITY  FLURRIES  29  22  75 N5        30.33F WCI  24
6HR MIN TEMP:  24; 6HR MAX TEMP:  30; 6HR PCP:  0.05;

$$
MIZ007>008-015-091900-
EASTERN UPPER MICHIGAN

CITY           SKY/WX    TMP DP  RH WIND       PRES   REMARKS
KINROSS        FLURRIES  23  13  65 CALM      30.32F
6HR MIN TEMP:  16; 6HR MAX TEMP:  24; 6HR PCP: TRACE;

MACKINAC ISLAN CLOUDY    23  16  74 N3        30.31F
6HR MIN TEMP:  20; 6HR MAX TEMP:  23;

NEWBERRY       CLOUDY    22  15  76 NW5       30.31F HAZE    WCI  15
6HR MIN TEMP:  17; 6HR MAX TEMP:  22;

S. S. MARIE    CLOUDY    21   7  54 N7        30.31F WCI  12
6HR MIN TEMP:  17; 6HR MAX TEMP:  21;

MUNISING         N/A     25  17  72 N9        30.35S WCI  15
6HR MIN TEMP:  25; 6HR MAX TEMP:  28; 6HR PCP:  0.01;

$$
MIZ004>006-011>014-085-091900-
CENTRAL UPPER MICHIGAN

CITY           SKY/WX    TMP DP  RH WIND       PRES   REMARKS
MANISTIQUE     FLURRIES  24  21  87 W7        30.34F WCI  16
6HR MIN TEMP:  17; 6HR MAX TEMP:  26;

ESCANABA       CLOUDY    26  14  60 NW13      30.38F WCI  15
6HR MIN TEMP:  17; 6HR MAX TEMP:  26;

MENOMINEE      SUNNY     25   9  50 NW9G20    30.41F WCI  15
6HR MIN TEMP:  18; 6HR MAX TEMP:  25;

SAWYER-GWINN   PTSUNNY   19  14  79 NW14      30.34S WCI   6
$$
MIZ001>003-009>011-084-091900-
WESTERN UPPER MICHIGAN

CITY           SKY/WX    TMP DP  RH WIND       PRES   REMARKS
IRON MOUNTAIN  SUNNY     21   7  54 NW17G24   30.35F WCI   7
6HR MIN TEMP:  16; 6HR MAX TEMP:  22;

HOUGHTON       MIX PCPN  18   8  65 NW12      30.36F WCI   5
6HR MIN TEMP:  18; 6HR MAX TEMP:  20; 6HR PCP:  0.01;

COPPER HARBOR    N/A     22  17  81 N16G23    30.37F WCI   8
6HR MIN TEMP:  22; 6HR MAX TEMP:  24; 6HR PCP:  0.01;

IRONWOOD       FLURRIES  15   8  73 W15       30.42F WCI   0
6HR MIN TEMP:  15; 6HR MAX TEMP:  17; 6HR PCP: TRACE;

$$

ABBREVIATIONS USED IN REMARKS
   TC - TEMPERATURE IN CELSIUS
  WCI - WIND CHILL INDEX
   HX - HEAT INDEX
  VSB - VISIBILITY





USA.gov is the U.S. government's official web portal to all federal, state and local government web resources and services.